Latest Weather Observations for Gosford

IDN60901

Issued at 11:35 pm EST Friday 18 April 2014 (issued every 10 minutes, with the page automatically refreshed every 10 minutes)

About weather observations | Map of Sydney area stations | Latest observations for Sydney area | Other Formats
Station Details ID: 061425 Name: GOSFORD AWS Lat: -33.44 Lon: 151.36 Height: 7.0 m
Data from the previous 72 hours. | See also: Recent months for locations in New South Wales
Date/Time
EST
Tmp

°C
App
Tmp
°C
Dew
Point
°C
Rel
Hum
%
Delta-T

°C
Wind Press
QNH
hPa
Press
MSL
hPa
Rain
since
9 am
mm
Dir
 
Spd
km/h
Gust
km/h
Spd
kts
Gust
kts
18/11:30pm 13.9 14.9 13.1 95 0.4 SSW 0 0 0 0 - - 0.0
18/11:00pm 15.2 15.9 13.4 89 1.0 NNW 2 9 1 5 - - 0.0
18/10:30pm 15.1 15.5 13.6 91 0.8 NW 4 7 2 4 - - 0.0
18/10:00pm 15.8 16.6 13.8 88 1.1 SE 2 4 1 2 - - 0.0
18/09:30pm 17.1 17.3 13.0 77 2.3 WNW 4 11 2 6 - - 0.0
18/09:00pm 16.7 18.5 15.4 92 0.8 CALM 0 2 0 1 - - 0.0
18/08:30pm 15.9 17.3 15.3 96 0.3 E 2 6 1 3 - - 0.0
18/08:00pm 16.1 17.3 15.0 93 0.6 ENE 2 4 1 2 - - 0.0
18/07:30pm 16.8 18.0 15.0 89 1.0 N 2 4 1 2 - - 0.0
18/07:00pm 17.3 18.5 14.9 86 1.4 NE 2 7 1 4 - - 0.0
18/06:30pm 16.8 18.2 14.3 85 1.4 CALM 0 0 0 0 - - 0.0
18/06:00pm 18.0 18.8 12.5 70 3.1 N 0 0 0 0 - - 0.0
18/05:30pm 19.1 19.9 12.6 66 3.6 CALM 0 0 0 0 - - 0.0
18/05:00pm 21.3 21.5 11.9 55 5.3 N 2 4 1 2 - - 0.0
18/04:30pm 22.5 23.2 13.3 56 5.3 NNW 2 6 1 3 - - 0.0
18/04:00pm 24.2 24.2 12.5 48 6.7 S 4 6 2 3 - - 0.0
18/03:30pm 24.4 23.9 10.7 42 7.6 S 4 7 2 4 - - 0.0
18/03:00pm 24.3 23.1 10.2 41 7.8 WSW 7 13 4 7 - - 0.0
18/02:30pm 24.6 23.1 10.5 41 7.8 WNW 9 13 5 7 - - 0.0
18/02:00pm 24.2 23.3 11.5 45 7.2 W 7 17 4 9 - - 0.0
18/01:30pm 24.4 24.0 12.4 47 6.9 WSW 6 13 3 7 - - 0.0
18/01:00pm 23.8 22.6 11.5 46 6.9 WNW 9 13 5 7 - - 0.0
18/12:30pm 23.3 22.5 11.7 48 6.5 WNW 7 15 4 8 - - 0.0
18/12:00pm 23.0 22.5 12.0 50 6.2 WNW 6 11 3 6 - - 0.0
18/11:30am 22.7 21.8 12.6 53 5.8 W 9 13 5 7 - - 0.0
18/11:00am 22.1 21.9 13.5 58 5.0 W 7 15 4 8 - - 0.0
18/10:30am 21.3 21.5 14.2 64 4.1 SSW 6 9 3 5 - - 0.0
18/10:00am 21.0 20.7 13.4 62 4.4 W 7 9 4 5 - - 0.0
18/09:30am 20.1 20.2 14.0 68 3.5 W 6 9 3 5 - - 0.0
18/09:00am 19.0 20.1 13.6 71 3.1 CALM 0 4 0 2 - - 0.0
18/08:30am 18.2 19.4 13.9 76 2.5 CALM 0 2 0 1 - - 0.0
18/08:00am 16.7 17.8 13.4 81 1.9 CALM 0 0 0 0 - - 0.0
18/07:30am 15.4 16.5 13.6 89 1.0 CALM 0 0 0 0 - - 0.0
18/07:00am 13.3 13.4 12.7 96 0.3 WNW 4 6 2 3 - - 0.0
18/06:30am 12.6 13.3 12.3 98 0.2 CALM 0 0 0 0 - - 0.0
18/06:00am 13.3 13.7 12.5 95 0.4 W 2 6 1 3 - - 0.0
18/05:30am 13.6 14.5 12.8 95 0.4 CALM 0 4 0 2 - - 0.0
18/05:00am 13.6 14.4 12.7 94 0.5 SSW 0 4 0 2 - - 0.0
18/04:30am 14.2 14.0 12.9 92 0.7 W 6 11 3 6 - - 0.0
18/04:00am 14.1 13.8 12.7 91 0.8 W 6 9 3 5 - - 0.0
18/03:30am 14.6 14.8 13.0 90 0.9 W 4 11 2 6 - - 0.0
18/03:00am 15.2 14.9 13.2 88 1.1 W 7 15 4 8 - - 0.0
18/02:30am 15.4 14.8 13.4 88 1.1 WNW 9 15 5 8 - - 0.0
18/02:00am 15.6 15.0 13.4 87 1.2 W 9 15 5 8 - - 0.0
18/01:30am 15.9 14.7 13.9 88 1.1 WNW 13 19 7 10 - - 0.0
18/01:00am 15.6 15.2 14.1 91 0.8 WNW 9 13 5 7 - - 0.0
18/12:30am 15.7 16.0 14.4 92 0.7 NW 6 11 3 6 - - 0.0
18/12:00am 16.1 15.8 14.5 90 0.9 WNW 9 15 5 8 - - 0.0
 
Date/Time
EST
Tmp

°C
App
Tmp
°C
Dew
Point
°C
Rel
Hum
%
Delta-T

°C
Wind Press
QNH
hPa
Press
MSL
hPa
Rain
since
9 am
mm
Dir
 
Spd
km/h
Gust
km/h
Spd
kts
Gust
kts
17/11:30pm 16.4 15.8 14.6 89 1.0 W 11 19 6 10 - - 0.0
17/11:00pm 16.7 15.8 14.9 89 1.0 WNW 13 17 7 9 - - 0.0
17/10:30pm 16.4 16.8 14.8 90 0.9 W 6 9 3 5 - - 0.0
17/10:00pm 16.0 16.4 14.7 92 0.7 NW 6 7 3 4 - - 0.0
17/09:30pm 16.7 18.0 15.2 91 0.9 WNW 2 4 1 2 - - 0.0
17/09:00pm 16.5 17.8 15.2 92 0.8 NW 2 4 1 2 - - 0.0
17/08:30pm 17.2 18.5 15.2 88 1.2 NW 2 4 1 2 - - 0.0
17/08:00pm 17.9 19.2 15.2 84 1.6 WNW 2 6 1 3 - - 0.0
17/07:30pm 19.5 19.1 15.2 76 2.5 S 11 17 6 9 - - 0.0
17/07:00pm 19.6 19.2 15.3 76 2.5 S 11 19 6 10 - - 0.0
17/06:30pm 19.6 19.5 15.0 75 2.7 S 9 17 5 9 - - 0.0
17/06:00pm 19.3 20.2 16.2 82 1.9 SSE 6 13 3 7 - - 0.0
17/05:30pm 19.8 20.2 16.3 80 2.1 S 9 20 5 11 - - 0.0
17/05:00pm 20.2 20.8 15.8 76 2.6 SSE 7 17 4 9 - - 0.0
17/04:30pm 20.4 20.1 14.5 69 3.4 S 9 15 5 8 - - 0.0
17/04:00pm 20.7 20.7 15.3 71 3.2 S 9 19 5 10 - - 0.0
17/03:30pm 21.2 20.5 15.3 69 3.5 S 13 22 7 12 - - 0.0
17/03:00pm 20.7 19.9 15.0 70 3.4 S 13 19 7 10 - - 0.0
17/02:30pm 20.8 19.5 15.8 73 3.0 S 17 26 9 14 - - 0.0
17/02:00pm 20.8 18.9 15.1 70 3.4 S 19 32 10 17 - - 0.0
17/01:30pm 20.9 18.8 14.8 68 3.6 S 19 30 10 16 - - 0.0
17/01:00pm 21.6 20.3 14.7 65 4.1 SSW 15 22 8 12 - - 0.0
17/12:30pm 21.4 22.1 19.7 90 1.1 S 15 26 8 14 - - 0.0
17/12:00pm 21.6 21.1 17.0 75 2.8 S 15 24 8 13 - - 0.0
17/11:30am 21.3 20.6 16.5 74 2.9 S 15 26 8 14 - - 0.0
17/11:00am 21.1 20.3 16.1 73 3.0 SW 15 24 8 13 - - 0.0
17/10:30am 20.9 21.2 17.1 79 2.3 SW 11 19 6 10 - - 0.0
17/10:00am 20.3 20.6 16.9 81 2.1 WSW 11 17 6 9 - - 0.0
17/09:30am 19.5 19.7 16.7 84 1.7 WSW 11 19 6 10 - - 0.0
17/09:00am 18.4 18.1 15.5 83 1.7 WSW 11 19 6 10 - - 0.0
17/08:30am 17.6 17.5 15.0 85 1.5 W 9 13 5 7 - - 0.0
17/08:00am 16.9 17.4 15.6 92 0.8 W 7 11 4 6 - - 0.0
17/07:30am 15.8 15.5 14.5 92 0.7 W 9 15 5 8 - - 0.0
17/07:00am 14.8 14.8 14.2 96 0.3 W 7 11 4 6 - - 0.0
17/06:30am 14.2 13.4 14.0 99 0.1 W 11 17 6 9 - - 0.0
17/06:00am 14.3 13.1 14.1 99 0.1 W 13 17 7 9 - - 0.0
17/05:30am 14.4 13.3 14.2 99 0.1 W 13 17 7 9 - - 0.0
17/05:00am 14.4 14.9 14.1 98 0.2 NW 4 7 2 4 - - 0.0
17/04:30am 14.3 14.4 14.0 98 0.2 W 6 11 3 6 - - 0.0
17/04:00am 14.6 13.9 14.3 98 0.2 W 11 15 6 8 - - 0.0
17/03:30am 14.4 14.5 14.4 100 0.0 W 7 11 4 6 - - 0.0
17/03:00am 14.4 15.0 14.2 99 0.1 W 4 6 2 3 - - 0.0
17/02:30am 14.6 14.9 14.4 99 0.1 WNW 6 7 3 4 - - 0.0
17/02:00am 15.0 15.4 14.8 99 0.1 WNW 6 9 3 5 - - 0.0
17/01:30am 15.3 15.3 15.1 99 0.1 WNW 9 17 5 9 - - 0.0
17/01:00am 15.4 15.8 15.2 99 0.1 WNW 7 13 4 7 - - 0.0
17/12:30am 15.4 16.0 15.4 100 0.0 W 6 13 3 7 - - 0.0
17/12:00am 15.8 15.6 15.8 100 0.0 WNW 11 15 6 8 - - 0.0
 
Date/Time
EST
Tmp

°C
App
Tmp
°C
Dew
Point
°C
Rel
Hum
%
Delta-T

°C
Wind Press
QNH
hPa
Press
MSL
hPa
Rain
since
9 am
mm
Dir
 
Spd
km/h
Gust
km/h
Spd
kts
Gust
kts
16/11:30pm 15.8 16.4 15.8 100 0.0 WNW 7 11 4 6 - - 0.0
16/11:00pm 15.5 16.0 15.5 100 0.0 WNW 7 11 4 6 - - 0.0
16/10:30pm 16.0 16.7 16.0 100 0.0 W 7 11 4 6 - - 0.0
16/10:00pm 15.3 - - - - W 6 9 3 5 - - 0.0
16/09:30pm 15.7 - - - - CALM 0 0 0 0 - - 0.0
16/09:00pm 15.9 - - - - WNW 4 4 2 2 - - 0.0
16/08:30pm 16.2 17.5 16.2 100 0.0 WNW 4 6 2 3 - - 0.0
16/08:00pm 16.4 18.2 16.4 100 0.0 W 2 6 1 3 - - 0.0
16/07:30pm 17.4 19.1 17.1 98 0.2 W 4 7 2 4 - - 0.0
16/07:00pm 18.6 20.0 17.8 95 0.5 SW 7 13 4 7 - - 0.0
16/06:30pm 19.1 20.9 18.3 95 0.5 S 6 11 3 6 - - 0.0
16/06:00pm 19.4 19.9 18.4 94 0.6 S 13 20 7 11 - - 0.0
16/05:30pm 19.5 20.1 17.6 89 1.2 S 11 19 6 10 - - 0.0
16/05:00pm 20.0 20.2 17.6 86 1.5 S 13 24 7 13 - - 0.0
16/04:30pm 20.5 20.7 17.7 84 1.7 S 13 22 7 12 - - 0.0
16/04:00pm 20.5 20.3 17.7 84 1.7 S 15 24 8 13 - - 0.0
16/03:30pm 21.0 21.5 18.4 85 1.6 S 13 22 7 12 - - 0.0
16/03:00pm 20.4 20.3 17.8 85 1.6 S 15 22 8 12 - - 0.0
16/02:30pm 20.1 20.4 17.9 87 1.4 S 13 22 7 12 - - 0.0
16/02:00pm 20.8 20.6 18.4 86 1.5 S 17 28 9 15 - - 0.0
16/01:30pm 21.6 22.5 18.4 82 2.0 SSW 11 19 6 10 - - 0.0
16/01:00pm 21.7 21.5 17.7 78 2.5 SSW 15 22 8 12 - - 0.0
16/12:30pm 21.6 22.3 18.0 80 2.2 S 11 19 6 10 - - 0.0
16/12:00pm 21.1 21.6 17.5 80 2.2 SSW 11 19 6 10 - - 0.0
16/11:30am 20.6 21.0 17.2 81 2.1 SW 11 20 6 11 - - 0.0
16/11:00am 19.8 20.6 17.2 85 1.6 SW 9 15 5 8 - - 0.0
16/10:30am 19.3 20.1 17.3 88 1.2 SW 9 17 5 9 - - 0.0
16/10:00am 18.5 18.5 16.3 87 1.3 SW 11 19 6 10 - - 0.0
16/09:30am 18.8 18.5 16.4 86 1.4 SW 13 22 7 12 - - 0.0
16/09:00am 18.5 19.4 16.7 89 1.1 WSW 7 15 4 8 - - 25.2
16/08:30am 17.7 17.6 15.9 89 1.1 SW 11 20 6 11 - - 25.2
16/08:00am 17.4 17.7 16.1 92 0.8 WSW 9 17 5 9 - - 25.2
16/07:30am 16.4 16.9 15.6 95 0.5 WSW 7 13 4 7 - - 25.2
16/07:00am 16.2 16.7 15.6 96 0.3 WSW 7 13 4 7 - - 25.2
16/06:30am 16.3 16.4 15.5 95 0.5 SW 9 19 5 10 - - 25.2
16/06:00am 16.1 16.2 15.6 97 0.3 W 9 19 5 10 - - 25.2
16/05:30am 16.8 17.6 16.3 97 0.3 SW 7 15 4 8 - - 25.2
16/05:00am 16.8 17.3 16.6 99 0.1 SW 9 17 5 9 - - 25.2
16/04:30am 16.6 16.2 16.3 98 0.2 SW 13 22 7 12 - - 25.2
16/04:00am 16.8 16.4 16.3 97 0.3 SW 13 20 7 11 - - 25.2
16/03:30am 16.8 17.3 16.5 98 0.2 SW 9 17 5 9 - - 25.2
16/03:00am 16.8 16.6 16.6 99 0.1 SW 13 22 7 12 - - 25.2
16/02:30am 16.7 16.9 16.7 100 0.0 SW 11 17 6 9 - - 25.2
16/02:00am 16.9 16.8 16.9 100 0.0 SW 13 20 7 11 - - 25.2
16/01:30am 16.6 17.1 16.6 100 0.0 SW 9 19 5 10 - - 25.2
16/01:00am 16.4 - - - - SW 7 15 4 8 - - 25.2
16/12:30am 16.3 - - - - SW 9 17 5 9 - - 25.2
16/12:00am 16.3 - - - - SW 11 20 6 11 - - 25.2

Latest Capital City Observations: Canberra | Sydney | Melbourne | Brisbane | Adelaide | Perth | Hobart | Darwin

Other Formats:

Comma delimited format used in spreadsheet applications
http://www.bom.gov.au/fwo/IDN60901/IDN60901.94782.axf

JavaScript Object Notation format (JSON) in row-major order
http://www.bom.gov.au/fwo/IDN60901/IDN60901.94782.json